Weather History for KSHD - February, 2012

Change the Weather History Date:

Wednesday, February 22, 2012

  Actual Average Record
Temperature  
Mean Temperature 48 °F -  
Max Temperature 59 °F 48 °F 64 °F (1997)
Min Temperature 36 °F 27 °F 19 °F (1999)
Degree Days  
Heating Degree Days 18    
Moisture  
Dew Point 32 °F    
Average Humidity 58    
Maximum Humidity 83    
Minimum Humidity 32    
Precipitation  
Precipitation 0.00 in - - ()
Sea Level Pressure  
Sea Level Pressure 29.77 in    
Wind  
Wind Speed 8 mph (SSW)    
Max Wind Speed 20 mph    
Max Gust Speed 32 mph    
Visibility 10 miles    
Events      
Averages and records for this station are not official NWS values.
T = Trace of Precipitation, MM = Missing Value Source: NWS Daily Summary

Daily Weather History Graph

Daily Weather History Graph

Search for Another Location

Airport or City:

Trip Planner

Search our weather history database for the weather conditions in past years. The results will help you decide how hot, cold, wet, or windy it might be!

Date:

Astronomy

Feb. 22, 2012 Rise Set
Actual Time 6:57 AM EST 6:01 PM EST
Civil Twilight 6:31 AM EST 6:27 PM EST
Nautical Twilight 6:00 AM EST 6:58 PM EST
Astronomical Twilight 5:29 AM EST 7:29 PM EST
Moon 6:56 AM EST (2/22) 7:04 PM EST (2/22)
Length of Visible Light 11h 56m
Length of Day
11h 03m
New Moon, 1% of the Moon is Illuminated
Feb 22
New Moon
Feb 29
First Quarter
Mar 8
Full
Mar 14
Last Quarter
Mar 22
New

Hourly Weather History & Observations

Time (EST) Temp. Windchill Dew Point Humidity Pressure Visibility Wind Dir Wind Speed Gust Speed Precip Events Conditions
12:15 AM 37.8 °F 32.5 °F 31.3 °F 77% 29.87 in 10.0 mi South 6.9 mph - N/A   Clear
12:35 AM 38.3 °F 33.2 °F 31.6 °F 77% 29.86 in 10.0 mi South 6.9 mph - N/A   Scattered Clouds
12:55 AM 39.6 °F 37.4 °F 31.8 °F 74% 29.87 in 10.0 mi SSW 3.5 mph - N/A   Clear
1:15 AM 39.6 °F 35.4 °F 32.0 °F 74% 29.86 in 10.0 mi South 5.8 mph - N/A   Clear
1:35 AM 40.5 °F 35.8 °F 32.4 °F 73% 29.87 in 10.0 mi South 6.9 mph - N/A   Scattered Clouds
1:55 AM 39.6 °F 34.7 °F 32.0 °F 74% 29.86 in 10.0 mi South 6.9 mph - N/A   Clear
2:15 AM 38.8 °F 33.8 °F 32.0 °F 76% 29.86 in 10.0 mi South 6.9 mph - N/A   Clear
2:35 AM 39.0 °F 34.0 °F 32.2 °F 76% 29.86 in 10.0 mi South 6.9 mph - N/A   Clear
2:55 AM 39.2 °F 35.0 °F 32.2 °F 76% 29.85 in 10.0 mi SSW 5.8 mph - N/A   Clear
3:15 AM 39.2 °F 35.0 °F 32.2 °F 76% 29.85 in 10.0 mi South 5.8 mph - N/A   Clear
3:35 AM 38.5 °F 35.0 °F 32.0 °F 78% 29.84 in 10.0 mi South 4.6 mph - N/A   Clear
3:55 AM 38.1 °F 34.6 °F 32.0 °F 79% 29.84 in 10.0 mi SSE 4.6 mph - N/A   Clear
4:15 AM 37.6 °F 34.0 °F 31.8 °F 80% 29.84 in 10.0 mi South 4.6 mph - N/A   Clear
4:35 AM 36.3 °F 32.5 °F 31.5 °F 83% 29.84 in 10.0 mi South 4.6 mph - N/A   Scattered Clouds
4:55 AM 36.3 °F 31.6 °F 31.5 °F 83% 29.84 in 10.0 mi South 5.8 mph - N/A   Scattered Clouds
5:15 AM 36.5 °F 32.7 °F 31.3 °F 81% 29.84 in 10.0 mi South 4.6 mph - N/A   Scattered Clouds
5:35 AM 37.0 °F 33.3 °F 31.8 °F 81% 29.85 in 10.0 mi South 4.6 mph - N/A   Scattered Clouds
5:55 AM 39.4 °F 35.2 °F 32.0 °F 75% 29.85 in 10.0 mi South 5.8 mph - N/A   Scattered Clouds
6:15 AM 40.3 °F 37.1 °F 32.0 °F 72% 29.84 in 10.0 mi South 4.6 mph - N/A   Scattered Clouds
6:35 AM 39.4 °F 34.5 °F 31.5 °F 73% 29.85 in 10.0 mi South 6.9 mph - N/A   Clear
6:55 AM 41.5 °F 38.6 °F 31.6 °F 68% 29.85 in 10.0 mi SSE 4.6 mph - N/A   Clear
7:15 AM 43.5 °F 41.9 °F 31.1 °F 62% 29.85 in 10.0 mi SSE 3.5 mph - N/A   Clear
7:35 AM 43.2 °F - 30.7 °F 62% 29.86 in 10.0 mi Calm Calm - N/A   Clear
7:55 AM 45.3 °F 44.0 °F 30.7 °F 57% 29.86 in 10.0 mi SW 3.5 mph - N/A   Clear
8:15 AM 40.8 °F - 31.1 °F 68% 29.86 in 10.0 mi Calm Calm - N/A   Clear
8:35 AM 41.7 °F 38.8 °F 31.5 °F 67% 29.86 in 10.0 mi SW 4.6 mph - N/A   Clear
8:55 AM 46.2 °F 44.1 °F 33.4 °F 61% 29.86 in 10.0 mi WSW 4.6 mph - N/A   Clear
9:15 AM 49.3 °F - 32.9 °F 53% 29.85 in 10.0 mi SSW 5.8 mph - N/A   Clear
9:35 AM 50.0 °F - 32.5 °F 51% 29.85 in 10.0 mi SSW 6.9 mph - N/A   Clear
9:55 AM 50.5 °F - 32.4 °F 50% 29.84 in 10.0 mi SSW 8.1 mph - N/A   Clear
10:15 AM 51.4 °F - 32.9 °F 49% 29.83 in 10.0 mi SSW 12.7 mph - N/A   Clear
10:35 AM 52.5 °F - 31.1 °F 44% 29.82 in 10.0 mi SSW 9.2 mph - N/A   Clear
10:55 AM 53.4 °F - 30.6 °F 42% 29.81 in 10.0 mi SSW 13.8 mph 18.4 mph N/A   Clear
11:15 AM 54.1 °F - 31.5 °F 42% 29.80 in 10.0 mi South 10.4 mph 18.4 mph N/A   Clear
11:35 AM 54.9 °F - 32.5 °F 43% 29.79 in 10.0 mi SW 9.2 mph 18.4 mph N/A   Clear
11:55 AM 55.2 °F - 33.1 °F 43% 29.78 in 10.0 mi SW 13.8 mph - N/A   Clear
12:15 PM 56.1 °F - 33.1 °F 42% 29.76 in 10.0 mi SW 15.0 mph 20.7 mph N/A   Clear
12:35 PM 55.9 °F - 32.7 °F 41% 29.74 in 10.0 mi SSW 11.5 mph 17.3 mph N/A   Clear
12:55 PM 57.0 °F - 32.7 °F 40% 29.72 in 10.0 mi South 11.5 mph 17.3 mph N/A   Clear
1:15 PM 57.6 °F - 32.2 °F 38% 29.69 in 10.0 mi SSW 15.0 mph 20.7 mph N/A   Clear
1:35 PM 58.3 °F - 32.2 °F 37% 29.68 in 10.0 mi South 13.8 mph 19.6 mph N/A   Clear
1:55 PM 59.0 °F - 31.6 °F 36% 29.67 in 10.0 mi SSW 17.3 mph 24.2 mph N/A   Clear
2:15 PM 59.4 °F - 30.9 °F 34% 29.66 in 10.0 mi SW 17.3 mph 28.8 mph N/A   Scattered Clouds
2:35 PM 58.6 °F - 29.3 °F 33% 29.65 in 10.0 mi SW 16.1 mph 28.8 mph N/A   Mostly Cloudy
2:55 PM 58.3 °F - 28.4 °F 32% 29.65 in 10.0 mi SSW 18.4 mph 32.2 mph N/A   Overcast
3:15 PM 57.6 °F - 29.7 °F 35% 29.66 in 10.0 mi WSW 17.3 mph 23.0 mph N/A   Overcast
3:35 PM 57.2 °F - 29.7 °F 35% 29.64 in 10.0 mi WSW 18.4 mph 29.9 mph N/A   Overcast
3:55 PM 57.6 °F - 28.8 °F 33% 29.62 in 10.0 mi SSW 19.6 mph 29.9 mph N/A   Mostly Cloudy
4:15 PM 55.4 °F - 32.4 °F 42% 29.62 in 10.0 mi SSW 16.1 mph 24.2 mph N/A   Mostly Cloudy
4:35 PM 55.2 °F - 34.0 °F 45% 29.61 in 10.0 mi SW 16.1 mph 25.3 mph N/A   Mostly Cloudy
4:55 PM 55.4 °F - 34.7 °F 46% 29.61 in 10.0 mi SW 18.4 mph 26.5 mph N/A   Mostly Cloudy
5:15 PM 55.0 °F - 35.6 °F 48% 29.61 in 10.0 mi SW 10.4 mph - N/A   Overcast
5:35 PM 54.9 °F - 36.9 °F 51% 29.60 in 10.0 mi SW 16.1 mph 24.2 mph N/A   Overcast
5:55 PM 54.0 °F - 37.0 °F 53% 29.59 in 10.0 mi SSW 15.0 mph 18.4 mph N/A   Mostly Cloudy
6:15 PM 54.0 °F - 37.0 °F 53% 29.59 in 10.0 mi SW 11.5 mph 18.4 mph N/A   Mostly Cloudy
6:35 PM 53.6 °F - 37.0 °F 53% 29.59 in 10.0 mi SW 13.8 mph 18.4 mph N/A   Overcast
6:55 PM 53.2 °F - 37.2 °F 55% 29.59 in 10.0 mi SW 10.4 mph 17.3 mph N/A   Scattered Clouds
7:15 PM 53.1 °F - 37.4 °F 55% 29.59 in 10.0 mi SW 10.4 mph - N/A   Clear
7:35 PM 52.7 °F - 37.8 °F 57% 29.58 in 10.0 mi SW 12.7 mph - N/A   Clear
7:55 PM 53.1 °F - 38.3 °F 57% 29.57 in 10.0 mi SW 10.4 mph - N/A   Clear
8:15 PM 52.9 °F - 38.3 °F 58% 29.56 in 10.0 mi SSW 8.1 mph - N/A   Clear
8:35 PM 52.7 °F - 39.2 °F 60% 29.56 in 10.0 mi SW 11.5 mph - N/A   Scattered Clouds
8:55 PM 52.9 °F - 39.4 °F 60% 29.54 in 10.0 mi SW 12.7 mph 17.3 mph N/A   Mostly Cloudy
9:15 PM 53.1 °F - 39.6 °F 60% 29.54 in 10.0 mi SSW 12.7 mph - N/A   Overcast
9:35 PM 53.1 °F - 39.6 °F 60% 29.53 in 10.0 mi SSW 12.7 mph - N/A   Overcast
9:55 PM 52.9 °F - 38.8 °F 59% 29.53 in 10.0 mi SSW 12.7 mph 21.9 mph N/A   Mostly Cloudy
10:15 PM 52.2 °F - 38.5 °F 60% 29.51 in 10.0 mi South 18.4 mph 23.0 mph N/A   Scattered Clouds
10:35 PM 51.6 °F - 38.1 °F 60% 29.51 in 10.0 mi SSW 15.0 mph 23.0 mph N/A   Scattered Clouds
10:55 PM 51.1 °F - 38.3 °F 62% 29.52 in 10.0 mi SW 11.5 mph - N/A   Overcast
11:15 PM 50.4 °F - 38.7 °F 64% 29.53 in 10.0 mi SW 10.4 mph 19.6 mph N/A   Overcast
11:35 PM 50.0 °F - 39.2 °F 66% 29.53 in 10.0 mi SW 11.5 mph 21.9 mph N/A   Overcast
11:55 PM 49.5 °F - 39.2 °F 68% 29.52 in 10.0 mi SW 10.4 mph - N/A   Overcast